EHI
0 0 0 0 0 0 0 0 0 0 0 0 0 0 0 0 0 0 0 0 0 0 0 0 0 0 0 0 0 0 0 0 0 0 0 0 0 0 0 0 0 0 0 0
0 0 0 0 0 0 0 0 0 0 0 0 0 0 0 0 0 0 0 0 0 0 0 0 0 0 0 0 0 0 0 0 0 0 0 0 0 0 0 0 0 0 0 0
0 0 0 0 0 0 0 0 0 0 0 0 0 0 0 0 0 0 0 0 0 0 0 0 0 0 0 0 0 0 0 0 0 0 0 0 0 0 0 0 0 0 0 0
0 0 0 0 0 0 0 0 0 0 0 0 0 0 0 0 0 0 0 0 0 0 0 0 0 0 0 0 0 0 0 0 0 0 0 0 0 0 0 0 0 0 0 0
0 0 0 0 0 0 0 0 0 0 0 0 0 0 0 0 0 0 0 0 0 0 0 0 0 0 0 0 0 0 0 0 0 0 0 0 0 0 0 0 0 0 0 0
0 0 0 0 0 0 0 0 0 0 0 0 0 0 0 0 0 0 0 0 0 0 0 0 0 0 0 0 0 0 0 0 0 0 0 0 0 0 0 0 0 0 0 0
0 0 0 0 0 0 0 0 0 0 0 0 0 0 0 0 0 0 0 0 0 0 0 0 0 0 0 0 0 0 0 0 0 0 0 0 0 0 0 0 0 0 0 0
0 0 0 0 0 0 0 0 0 0 0 0 0 0 0 0 0 0 0 0 0 0 0 0 0 0 0 0 0 0 0 0 0 0 0 0 0 0 0 0 0 0 0 0
0 0 0 0 0 0 0 0 0 0 0 0 0 0 0 0 0 0 0 0 0 0 0 0 0 0 0 0 0 0 0 0 0 0 0 0 0 0 0 0 0 0 0 0
0 0 0 0 0 0 0 0 0 0 0 0 0 0 0 0 0 0 0 0 0 0 0 0 0 0 0 0 0 0 0 0 0 0 0 0 0 0 0 0 0 0 0 0
0 0 0 0 0 0 0 0 0 0 0 0 0 0 0 0 0 0 0 0 0 0 0 0 0 0 0 0 0 0 0 0 0 0 0 0 0 0 0 0 0 0 0 0
0 0 0 0 0 0 0 0 0 0 0 0 0 0 0 0 0 0 0 0 0 0 0 0 0 0 0 0 0 0 0 0 0 0 0 0 0 0 0 0 0 0 0 0
0 0 0 0 0 0 0 0 0 0 0 0 0 0 0 0 0 0 0 0 0 0 0 0 0 0 0 0 0 0 0 0 0 0 0 0 0 0 0 0 0 0 0 0
0 0 0 0 0 0 0 0 0 0 0 0 0 0 0 0 0 0 0 0 0 0 0 0 0 0 0 0 0 0 0 0 0 0 0 0 0 0 0 0 0 0 0 0
0 0 0 0 0 0 0 0 0 0 0 0 0 0 0 0 0 0 0 0 0 0 0 0 0 0 0 0 0 0 0 0 0 0 0 0 0 0 0 0 0 0 0 0
0 0 0 0 0 0 0 0 0 0 0 0 0 0 0 0 0 0 0 0 0 0 0 0 0 0 0 0 0 0 0 0 0 0 0 0 0 0 0 0 0 0 0 0
0 0 0 0 0 0 0 0 0 0 0 0 0 0 0 0 0 0 0 0 0 0 0 0 0 0 0 0 0 0 0 0 0 0 0 0 0 0 0 0 0 0 0 0
0 0 0 0 0 0 0 0 0 0 0 0 0 0 0 0 0 0 0 0 0 0 0 0 0 0 0 0 0 0 0 0 0 0 0 0 0 0 0 0 0 0 0 0
0 0 0 0 0 0 0 0 0 0 0 0 0 0 0 0 0 0 0 0 0 0 0 0 0 0 0 0 0 0 0 0 0 0 0 0 0 0 0 0 0 0 0 0
0 0 0 0 0 0 0 0 0 0 0 0 0 0 0 0 0 0 0 0 0 0 0 0 0 0 0 0 0 0 0 0 0 0 0 0 0 0 0 0 0 0 0 0
0 0 0 0 0 0 0 0 0 0 0 0 0 0 0 0 0 0 0 0 0 0 0 0 0 0 0 0 0 0 0 0 0 0 0 0 0 0 0 0 0 0 0 0
0 0 0 0 0 0 0 0 0 0 0 0 0 0 0 0 0 0 0 0 0 0 0 0 0 0 0 0 0 0 0 0 0 0 0 0 0 0 0 0 0 0 0 0
0 0 0 0 0 0 0 0 0 0 0 0 0 0 0 0 0 0 0 0 0 0 0 0 0 0 0 0 0 0 0 0 0 0 0 0 0 0 0 0 0 0 0 0
0 0 0 0 0 0 0 0 0 0 0 0 0 0 0 0 0 0 0 0 0 0 0 0 0 0 0 0 0 0 0 0 0 0 0 0 0 0 0 0 0 0 0 0
0 0 0 0 0 0 0 0 0 0 0 0 0 0 0 0 0 0 0 0 0 0 0 0 0 0 0 0 0 0 0 0 0 0 0 0 0 0 0 0 0 0 0 0
0 0 0 0 0 0 0 0 0 0 0 0 0 0 0 0 0 0 0 0 0 0 0 0 0 0 0 0 0 0 0 0 0 0 0 0 0 0 0 0 0 0 0 0
Wind_Speed
3 2 3 4 4 4 4 5 5 3 6 4 8 10 7 13 10 10 10 11 12 12 12 11 11 10 9 8 8 6 4 3 1 0 1 2 2 3 3 3 3 3 4 4
4 2 3 2 1 3 5 6 4 4 6 4 6 9 7 10 14 12 11 11 12 11 11 12 12 11 11 10 9 7 6 3 2 1 1 2 3 4 4 3 2 3 4 5
2 4 2 2 3 5 6 2 3 4 3 7 4 6 5 2 6 9 10 10 9 11 11 12 12 11 10 10 9 7 6 4 3 2 1 3 3 3 3 3 3 4 5 5
3 3 1 4 3 2 2 5 2 4 5 2 5 3 7 6 6 9 11 11 11 10 9 10 13 13 12 9 8 8 6 5 4 2 2 2 3 4 4 3 4 5 5 5
2 4 3 4 1 1 2 2 3 5 4 5 5 4 4 6 7 11 12 12 11 10 9 9 12 12 11 10 9 8 7 6 5 4 3 4 4 3 3 4 5 5 4 5
3 1 2 3 2 1 4 3 4 3 3 5 5 3 4 7 7 6 9 9 9 8 8 7 9 11 9 10 9 7 7 6 5 5 5 5 4 5 5 6 5 4 4 4
6 5 3 0 3 5 4 3 2 3 3 4 3 3 7 6 6 5 6 8 8 8 8 8 10 11 11 11 9 8 7 7 7 6 5 4 4 5 6 5 5 5 4 4
5 5 7 4 2 2 2 3 3 3 3 1 3 6 6 7 6 4 3 3 5 7 7 9 10 11 11 11 10 9 8 7 6 5 4 4 4 3 3 4 5 5 4 5
5 2 3 2 2 2 3 2 2 3 4 4 6 6 3 5 5 5 6 7 8 8 9 9 10 10 11 11 10 9 9 7 6 5 5 5 4 4 5 5 5 5 5 6
4 3 5 4 2 3 3 4 2 3 3 5 7 7 6 7 9 10 10 10 11 9 9 10 10 11 10 10 9 9 8 7 6 5 5 4 4 5 5 5 6 6 6 6
3 4 3 4 7 7 5 4 4 4 2 3 5 7 3 9 8 6 7 7 8 10 11 10 10 10 10 9 9 8 8 7 6 6 5 4 4 5 5 5 6 6 5 6
1 3 5 4 2 3 2 5 6 4 5 5 4 11 6 6 5 5 6 5 5 7 9 10 10 10 10 10 9 9 8 7 7 6 5 4 5 5 5 6 6 5 6 6
1 2 4 2 1 1 3 5 5 4 2 4 5 10 2 3 4 6 8 7 6 8 9 9 10 10 10 10 10 9 9 8 7 6 5 5 5 5 5 5 5 6 6 7
1 3 6 5 2 1 6 7 7 6 5 7 12 15 8 6 7 6 6 7 7 9 10 10 10 10 10 10 10 9 9 8 7 6 6 5 5 5 4 5 6 6 7 7
3 4 6 9 9 7 9 10 10 14 13 11 11 12 14 7 6 5 3 4 6 8 9 11 12 11 11 11 10 10 9 8 8 7 6 5 4 3 4 5 7 7 8 9
4 4 4 7 9 7 9 13 15 17 17 18 16 19 15 9 7 6 5 5 7 9 11 12 13 13 13 13 11 10 9 9 8 7 6 5 4 4 5 6 7 8 8 8
5 4 4 6 2 3 12 15 16 11 12 10 17 16 8 7 7 6 6 7 9 10 11 13 15 15 13 13 12 11 10 8 8 7 6 5 5 5 6 7 7 8 8 8
6 4 3 4 4 11 12 3 6 11 12 13 13 11 9 9 6 6 7 9 11 9 10 12 13 13 11 11 11 10 9 9 9 8 7 6 6 6 6 6 7 8 8 8
2 4 4 3 5 11 12 7 5 7 9 12 17 16 14 8 5 8 11 12 12 10 9 10 12 12 12 12 12 11 10 10 9 9 8 7 7 6 6 7 8 8 7 7
3 3 3 4 6 10 11 2 2 2 9 10 12 14 11 2 3 9 5 5 7 6 6 8 10 11 12 13 13 13 12 11 11 10 9 8 7 7 7 8 7 6 6 6
5 5 6 8 9 13 10 5 6 5 10 5 9 11 8 9 12 9 4 5 6 6 7 8 10 12 13 14 14 14 13 14 12 9 8 8 7 7 7 6 5 6 6 6
14 12 10 8 9 16 8 9 12 12 4 4 6 8 8 10 11 10 8 8 8 8 8 9 10 11 11 14 15 15 14 12 10 9 8 7 6 6 5 5 5 5 5 5
13 14 11 14 16 8 11 12 9 4 5 5 5 6 7 9 11 12 10 9 9 10 10 10 10 10 11 14 16 16 13 12 12 10 9 7 7 6 5 5 5 4 3 3
7 6 6 8 11 9 7 9 11 12 13 12 10 10 9 11 13 13 11 9 9 10 11 11 11 13 14 15 15 14 12 13 13 11 9 7 7 5 5 4 4 3 3 3
7 4 5 9 7 7 10 12 16 16 13 13 13 13 13 12 14 14 12 10 9 9 10 11 14 16 16 15 15 13 13 15 13 11 9 8 7 5 4 4 4 4 4 4
10 9 10 13 8 8 10 8 9 11 13 13 13 14 12 11 14 13 12 10 8 9 10 12 15 15 15 15 15 15 15 16 15 12 10 7 6 5 4 3 3 6 6 8
Wind_Direction
234 250 63 43 27 345 338 317 306 97 144 209 248 260 238 176 194 212 215 210 214 214 202 189 179 163 155 153 157 164 167 167 156 157 323 307 307 298 289 275 284 305 307 305
236 124 70 47 3 290 277 285 318 98 157 211 274 274 258 181 195 205 217 221 217 213 199 186 174 167 166 168 167 168 171 161 168 161 245 254 265 265 264 262 296 304 297 290
12 86 96 260 245 280 269 286 1 338 286 215 262 269 180 175 192 200 217 230 232 215 201 186 177 173 171 174 169 168 150 165 192 183 240 276 283 286 297 321 314 291 286 285
95 120 223 257 250 305 324 59 359 300 296 239 193 277 204 181 208 218 221 225 231 230 207 186 177 175 174 168 148 145 153 182 196 195 232 270 281 283 287 287 278 283 289 294
152 157 223 257 38 353 351 59 287 279 269 277 206 245 202 171 212 218 215 217 220 217 205 189 175 171 165 151 144 148 161 189 196 202 228 249 264 273 283 287 287 293 295 293
89 71 293 352 53 247 312 269 235 263 263 256 180 216 234 197 198 186 190 195 199 196 190 176 157 151 146 140 142 153 174 195 194 205 226 238 258 277 290 293 295 295 291 288
187 191 162 173 253 201 226 271 241 228 223 225 133 218 250 170 154 170 185 186 184 178 171 164 156 155 152 150 155 165 184 201 197 204 222 237 250 262 270 282 288 292 290 290
226 191 163 183 275 323 264 282 314 285 289 333 201 232 249 149 144 148 165 178 178 179 176 172 166 162 160 161 165 174 190 200 194 201 223 234 247 251 257 268 275 281 281 281
318 92 85 79 25 306 279 229 24 305 290 275 253 231 186 136 168 198 212 214 214 202 184 174 166 165 166 168 172 179 186 193 193 199 217 234 245 260 263 270 274 271 271 285
311 298 157 140 210 231 269 318 262 239 265 278 282 262 222 188 221 215 214 220 219 200 182 174 173 173 170 168 170 176 182 191 189 195 216 228 232 248 257 268 271 272 278 286
289 285 172 176 208 199 186 221 233 262 273 240 277 271 226 172 181 193 209 212 205 191 182 178 175 171 164 160 164 172 183 188 189 198 211 230 245 253 261 264 268 275 281 287
224 299 266 200 100 19 212 219 199 212 229 210 246 269 247 182 171 188 218 218 192 178 174 172 169 166 166 167 170 179 186 187 190 192 199 226 245 254 258 264 273 281 285 285
123 246 278 236 322 338 273 246 239 261 303 235 229 259 230 182 204 220 224 225 203 174 166 167 170 174 176 176 179 184 186 185 182 182 198 227 244 253 262 275 285 289 287 286
24 244 237 262 341 208 233 227 209 205 216 232 231 251 259 241 244 248 230 211 193 177 174 177 182 183 181 180 182 184 185 178 176 181 198 224 241 256 275 290 293 289 286 287
203 248 256 269 280 251 241 239 208 212 221 230 245 251 260 262 281 289 268 193 184 181 185 189 190 187 183 183 183 183 181 174 173 181 200 220 240 272 287 286 284 283 282 286
216 249 272 273 256 249 261 250 234 229 233 244 262 273 271 280 275 269 262 234 218 212 201 196 193 190 189 186 184 180 178 172 167 181 198 208 228 252 265 272 276 279 280 280
195 220 250 265 233 325 265 241 221 218 216 208 235 246 272 272 261 256 261 254 239 225 206 197 196 195 191 186 180 179 175 164 168 182 194 202 219 245 259 273 280 282 284 284
193 204 241 271 293 249 246 257 226 217 231 216 238 260 275 268 283 281 261 252 251 234 209 198 193 191 183 174 171 167 164 165 172 184 194 200 213 237 254 266 273 277 278 278
287 205 234 239 253 271 278 248 199 209 262 223 229 250 260 271 318 284 253 233 231 225 205 192 184 178 172 171 167 164 168 169 176 190 195 197 206 227 246 258 265 270 276 283
296 289 230 208 222 247 257 180 106 135 275 240 206 228 246 195 282 269 246 213 219 210 184 171 165 166 171 170 164 169 176 179 190 193 192 191 198 217 237 251 262 272 283 286
173 204 211 217 230 256 260 144 124 187 246 211 193 214 217 197 222 241 215 219 215 205 183 166 166 175 177 168 167 178 183 192 190 180 181 187 197 216 236 252 265 279 286 294
178 181 198 192 212 249 210 154 192 222 260 221 215 219 223 232 250 256 243 232 216 203 187 175 177 181 173 170 174 184 192 186 170 170 176 186 199 220 236 248 263 271 286 301
195 194 192 198 216 238 174 204 229 278 281 268 261 259 250 255 262 264 258 242 221 205 195 186 183 181 180 179 182 190 188 170 166 168 178 187 200 215 225 238 254 271 284 289
225 209 224 239 247 256 238 238 256 258 257 261 261 264 260 257 262 267 264 251 228 208 197 188 185 191 193 189 190 190 175 167 167 173 180 186 195 209 223 233 235 241 259 279
252 192 232 255 264 284 265 241 246 256 260 261 260 255 251 253 261 261 262 254 231 211 197 191 197 201 198 189 190 185 173 168 171 175 181 185 188 195 215 229 229 235 223 234
236 223 227 250 244 242 260 256 249 255 261 261 264 269 262 246 255 263 262 254 231 210 196 198 205 206 198 189 188 185 176 171 172 178 183 184 182 188 200 216 252 274 259 264